"Period start","avg(HW err(1)/warn(2) (#))","avg(Visibility (m))","avg(Weather code (#))","avg(Precip intensity (mm/h))","min(HW err(1)/warn(2) (#))","max(HW err(1)/warn(2) (#))","std(HW err(1)/warn(2) (#))","med(HW err(1)/warn(2) (#))","min(Visibility (m))","max(Visibility (m))","std(Visibility (m))","med(Visibility (m))","min(Weather code (#))","max(Weather code (#))","std(Weather code (#))","med(Weather code (#))","min(Precip intensity (mm/h))","max(Precip intensity (mm/h))","std(Precip intensity (mm/h))","med(Precip intensity (mm/h))"
2014-03-19 00:00:00,2,36808,0,0.00,2,2,0,2,30667,46799,5360,35132,0,0,0,0,0.00,0.00,0.00,0.00
2014-03-19 00:10:00,2,34950,0,0.00,2,2,0,2,26015,44537,5365,35215,0,0,0,0,0.00,0.00,0.00,0.00
2014-03-19 00:20:00,2,34569,0,0.00,2,2,0,2,29361,42059,4444,34072,0,0,0,0,0.00,0.00,0.00,0.00
2014-03-19 00:30:00,2,41474,0,0.00,2,2,0,2,31803,47579,4790,42516,0,0,0,0,0.00,0.00,0.00,0.00
2014-03-19 00:40:00,2,43160,0,0.00,2,2,0,2,33372,50000,4735,42782,0,0,0,0,0.00,0.00,0.00,0.00
2014-03-19 00:50:00,2,36169,0,0.00,2,2,0,2,32379,42893,3720,34174,0,0,0,0,0.00,0.00,0.00,0.00
2014-03-19 01:00:00,2,42968,0,0.00,2,2,0,2,36847,48082,3464,42520,0,0,0,0,0.00,0.00,0.00,0.00
2014-03-19 01:10:00,2,37118,0,0.00,2,2,0,2,24153,46875,6946,37558,0,0,0,0,0.00,0.00,0.00,0.00
2014-03-19 01:20:00,2,38134,0,0.00,2,2,0,2,31003,46971,4368,39554,0,0,0,0,0.00,0.00,0.00,0.00
2014-03-19 01:30:00,2,32337,0,0.00,2,2,0,2,22899,43465,6160,33482,0,0,0,0,0.00,0.00,0.00,0.00
2014-03-19 01:40:00,2,31716,0,0.00,2,2,0,2,21871,42467,6335,31554,0,0,0,0,0.00,0.00,0.00,0.00
2014-03-19 01:50:00,2,27224,0,0.00,2,2,0,2,23240,32667,2704,26758,0,0,0,0,0.00,0.00,0.00,0.00
2014-03-19 02:00:00,2,30100,0,0.00,2,2,0,2,15456,44702,8420,29426,0,0,0,0,0.00,0.00,0.00,0.00
2014-03-19 02:10:00,2,6348,4,0.00,2,2,0,2,3416,15880,3479,5268,0,10,5,0,0.00,0.00,0.00,0.00
2014-03-19 02:20:00,2,4796,10,0.00,2,2,0,2,3393,8380,1346,4606,10,10,0,10,0.00,0.00,0.00,0.00
2014-03-19 02:30:00,2,11801,10,0.00,2,2,0,2,6715,18290,3196,11460,10,10,0,10,0.00,0.00,0.00,0.00
2014-03-19 02:40:00,2,11096,71,0.23,2,2,0,2,6948,17324,2968,9817,71,71,0,71,0.00,1.00,0.27,0.12
2014-03-19 02:50:00,2,9750,71,0.17,2,2,0,2,7767,12303,1365,10115,71,71,0,71,0.00,0.45,0.14,0.15
2014-03-19 03:00:00,2,7704,61,0.01,2,2,0,2,4982,12810,2428,6408,10,77,26,71,0.00,0.05,0.02,0.00
2014-03-19 03:10:00,2,3843,59,0.10,2,2,0,2,2521,5527,811,3874,10,71,24,71,0.00,0.20,0.08,0.10
2014-03-19 03:20:00,2,2047,71,0.11,2,2,0,2,1426,2843,508,1772,71,71,0,71,0.00,0.30,0.09,0.08
2014-03-19 03:30:00,2,1945,71,0.07,2,2,0,2,1433,2496,266,1945,71,71,0,71,0.00,0.15,0.05,0.08
2014-03-19 03:40:00,2,1612,77,0.20,2,2,0,2,1338,2000,219,1530,77,77,0,77,0.10,0.35,0.08,0.20
2014-03-19 03:50:00,2,2163,42,0.08,2,2,0,2,1617,2806,381,2106,10,77,32,40,0.00,0.25,0.09,0.05
2014-03-19 04:00:00,2,2898,29,0.01,2,2,0,2,2071,4035,627,2854,10,77,29,10,0.00,0.05,0.02,0.00
2014-03-19 04:10:00,2,3901,77,0.10,2,2,0,2,3459,4371,286,3868,77,77,0,77,0.00,0.15,0.04,0.10
2014-03-19 04:20:00,2,2884,73,0.55,2,2,0,2,2074,3558,482,3107,71,77,3,71,0.20,1.95,0.50,0.35
2014-03-19 04:30:00,2,2370,71,1.28,2,2,0,2,1440,3480,582,2273,71,71,0,71,0.40,2.35,0.59,1.25
2014-03-19 04:40:00,2,1578,71,0.97,2,2,0,2,1124,2437,341,1544,71,71,0,71,0.70,1.45,0.26,0.88
2014-03-19 04:50:00,2,1867,71,1.05,2,2,0,2,1343,2307,308,1853,71,71,0,71,0.45,1.65,0.33,1.02
2014-03-19 05:00:00,2,2961,71,0.55,2,2,0,2,1802,4032,694,2850,71,71,0,71,0.10,1.70,0.47,0.33
2014-03-19 05:10:00,2,4562,72,0.08,2,2,0,2,2992,6874,1257,4320,71,77,2,71,0.00,0.25,0.07,0.05
2014-03-19 05:20:00,2,8169,77,0.03,2,2,0,2,6330,11073,1592,7664,77,77,0,77,0.00,0.05,0.02,0.05
2014-03-19 05:30:00,2,13612,76,0.03,2,2,0,2,11759,15987,1221,13487,71,77,2,77,0.00,0.10,0.03,0.00
2014-03-19 05:40:00,2,10766,76,0.06,2,2,0,2,6048,17316,3621,10000,71,77,2,77,0.00,0.20,0.07,0.03
2014-03-19 05:50:00,2,6288,71,0.61,2,2,0,2,4644,8006,970,6268,71,71,0,71,0.05,2.00,0.54,0.45
2014-03-19 06:00:00,2,4879,71,0.93,2,2,0,2,3720,7140,1013,4534,71,71,0,71,0.15,1.65,0.49,0.93
2014-03-19 06:10:00,2,3612,71,0.89,2,2,0,2,3104,4272,350,3520,71,71,0,71,0.10,1.65,0.47,0.95
2014-03-19 06:20:00,2,3436,71,0.53,2,2,0,2,2435,4298,531,3615,71,71,0,71,0.05,0.90,0.26,0.53
2014-03-19 06:30:00,2,2562,71,0.78,2,2,0,2,1822,3410,496,2574,71,71,0,71,0.25,1.80,0.48,0.65
2014-03-19 06:40:00,2,1922,71,2.24,2,2,0,2,1322,2990,486,1892,71,71,0,71,1.05,3.65,0.83,2.27
2014-03-19 06:50:00,2,1213,71,3.20,2,2,0,2,967,1356,132,1254,71,71,0,71,2.15,4.35,0.56,3.23
2014-03-19 07:00:00,2,1268,71,2.33,2,2,0,2,704,1987,392,1204,71,71,0,71,0.75,4.55,1.31,1.80
2014-03-19 07:10:00,2,1778,71,1.54,2,2,0,2,1111,2400,424,1834,71,71,0,71,0.65,3.30,0.83,1.10
2014-03-19 07:20:00,1,2444,71,0.95,1,2,0,1,2444,2444,0,2444,71,71,0,71,0.95,0.95,0.00,0.95
2014-03-19 07:30:00,1,,,,1,1,0,1,,,,,,,,,,,,
2014-03-19 07:40:00,1,,,,1,1,0,1,,,,,,,,,,,,
2014-03-19 07:50:00,1,,,,1,1,0,1,,,,,,,,,,,,
2014-03-19 08:00:00,1,,,,1,1,0,1,,,,,,,,,,,,
2014-03-19 08:10:00,1,,,,1,1,0,1,,,,,,,,,,,,
2014-03-19 08:20:00,1,,,,1,1,0,1,,,,,,,,,,,,
2014-03-19 08:30:00,1,,,,1,1,0,1,,,,,,,,,,,,
2014-03-19 08:40:00,1,,,,1,1,0,1,,,,,,,,,,,,
2014-03-19 08:50:00,1,,,,1,1,0,1,,,,,,,,,,,,
2014-03-19 09:00:00,1,,,,1,1,0,1,,,,,,,,,,,,
2014-03-19 09:10:00,1,,,,1,1,0,1,,,,,,,,,,,,
2014-03-19 09:20:00,1,,,,1,1,0,1,,,,,,,,,,,,
2014-03-19 09:30:00,1,,,,1,1,0,1,,,,,,,,,,,,
2014-03-19 09:40:00,1,,,,1,1,0,1,,,,,,,,,,,,
2014-03-19 09:50:00,1,,,,1,1,0,1,,,,,,,,,,,,
2014-03-19 10:00:00,1,,,,1,1,0,1,,,,,,,,,,,,
2014-03-19 10:10:00,1,,,,1,1,0,1,,,,,,,,,,,,
2014-03-19 10:20:00,1,,,,1,1,0,1,,,,,,,,,,,,
2014-03-19 10:30:00,1,,,,1,1,0,1,,,,,,,,,,,,
2014-03-19 10:40:00,1,,,,1,1,0,1,,,,,,,,,,,,
2014-03-19 10:50:00,1,,,,1,1,0,1,,,,,,,,,,,,
2014-03-19 11:00:00,1,,,,1,1,0,1,,,,,,,,,,,,
2014-03-19 11:10:00,1,,,,1,1,0,1,,,,,,,,,,,,
2014-03-19 11:20:00,1,,,,1,1,0,1,,,,,,,,,,,,
2014-03-19 11:30:00,1,,,,1,1,0,1,,,,,,,,,,,,
2014-03-19 11:40:00,1,,,,1,1,0,1,,,,,,,,,,,,
2014-03-19 11:50:00,1,,,,1,1,0,1,,,,,,,,,,,,
2014-03-19 12:00:00,1,,,,1,1,0,1,,,,,,,,,,,,
2014-03-19 12:10:00,1,,,,1,1,0,1,,,,,,,,,,,,
2014-03-19 12:20:00,1,,,,1,1,0,1,,,,,,,,,,,,
2014-03-19 12:30:00,1,,,,1,1,0,1,,,,,,,,,,,,
2014-03-19 12:40:00,1,,,,1,1,0,1,,,,,,,,,,,,
2014-03-19 12:50:00,1,,,,1,1,0,1,,,,,,,,,,,,
2014-03-19 13:00:00,1,,,,1,1,0,1,,,,,,,,,,,,
2014-03-19 13:10:00,1,,,,1,1,0,1,,,,,,,,,,,,
2014-03-19 13:20:00,1,,,,1,1,0,1,,,,,,,,,,,,
2014-03-19 13:30:00,1,,,,1,1,0,1,,,,,,,,,,,,
2014-03-19 13:40:00,1,,,,1,1,0,1,,,,,,,,,,,,
2014-03-19 13:50:00,1,,,,1,1,0,1,,,,,,,,,,,,
2014-03-19 14:00:00,1,,,,1,1,0,1,,,,,,,,,,,,
2014-03-19 14:10:00,1,,,,1,1,0,1,,,,,,,,,,,,
2014-03-19 14:20:00,2,6986,71,0.37,1,2,0,2,0,9392,2868,8038,71,71,0,71,0.15,0.80,0.21,0.25
2014-03-19 14:30:00,2,8796,71,0.29,2,2,0,2,6679,11098,1523,8506,71,71,0,71,0.10,0.80,0.20,0.23
2014-03-19 14:40:00,2,10196,71,0.14,2,2,0,2,8255,12687,1435,9796,71,71,0,71,0.00,0.45,0.13,0.12
2014-03-19 14:50:00,2,7370,71,0.36,2,2,0,2,4407,11375,1997,7243,71,71,0,71,0.05,0.80,0.23,0.30
2014-03-19 15:00:00,2,5981,71,0.63,2,2,0,2,4747,7811,953,5552,71,71,0,71,0.15,1.00,0.26,0.65
2014-03-19 15:10:00,2,3105,71,2.12,2,2,0,2,1067,5292,1441,2698,71,71,0,71,0.70,5.40,1.55,1.60
2014-03-19 15:20:00,2,2665,71,2.14,2,2,0,2,1033,3893,776,2706,71,71,0,71,0.90,5.45,1.41,1.38
2014-03-19 15:30:00,2,2448,71,2.32,2,2,0,2,1645,3971,617,2324,71,71,0,71,0.25,3.15,0.86,2.67
2014-03-19 15:40:00,2,2301,71,3.03,2,2,0,2,1552,3051,439,2294,71,71,0,71,1.70,4.60,1.00,2.62
2014-03-19 15:50:00,2,3354,71,1.48,2,2,0,2,1507,5105,1119,3290,71,71,0,71,0.35,3.60,1.07,1.00
2014-03-19 16:00:00,2,4965,71,1.06,2,2,0,2,3427,7241,1287,4491,71,71,0,71,0.20,2.40,0.69,0.70
2014-03-19 16:10:00,2,5765,71,1.15,2,2,0,2,4937,7255,715,5696,71,71,0,71,0.50,1.60,0.34,1.23
2014-03-19 16:20:00,2,6794,71,0.89,2,2,0,2,5498,8585,830,6849,71,71,0,71,0.50,1.45,0.25,0.88
2014-03-19 16:30:00,2,5244,71,1.29,2,2,0,2,2955,8618,1454,5098,71,71,0,71,0.50,2.25,0.60,1.23
2014-03-19 16:40:00,2,6046,71,0.82,2,2,0,2,2962,7864,1456,6590,71,71,0,71,0.15,1.60,0.45,0.82
2014-03-19 16:50:00,2,7063,71,0.55,2,2,0,2,4385,9022,1291,7278,71,71,0,71,0.20,1.20,0.31,0.45
2014-03-19 17:00:00,2,4962,71,1.00,2,2,0,2,3990,5791,679,5059,71,71,0,71,0.45,1.95,0.43,0.88
2014-03-19 17:10:00,2,2887,71,1.90,2,2,0,2,2219,4286,584,2781,71,71,0,71,0.70,3.35,0.75,1.93
2014-03-19 17:20:00,2,2766,71,1.90,2,2,0,2,2280,3317,330,2756,71,71,0,71,0.65,2.80,0.58,1.90
2014-03-19 17:30:00,2,3095,71,2.34,2,2,0,2,2210,4975,776,3052,71,71,0,71,0.45,3.20,0.84,2.60
2014-03-19 17:40:00,2,7120,65,0.07,2,2,0,2,6206,8426,716,7124,41,71,12,71,0.00,0.15,0.05,0.05
2014-03-19 17:50:00,2,7196,39,0.02,2,2,0,2,5832,8076,609,7304,10,77,28,41,0.00,0.10,0.03,0.00
2014-03-19 18:00:00,2,6198,10,0.00,2,2,0,2,4871,8663,1221,5848,10,10,0,10,0.00,0.00,0.00,0.00
2014-03-19 18:10:00,2,4650,60,0.55,2,2,0,2,2402,6877,1510,4884,10,77,25,71,0.00,2.35,0.74,0.15
2014-03-19 18:20:00,2,2306,71,2.24,2,2,0,2,1284,5713,1282,1787,71,71,0,71,0.90,3.05,0.79,2.48
2014-03-19 18:30:00,2,1602,71,1.76,2,2,0,2,1220,2026,209,1632,71,71,0,71,0.55,4.10,0.96,1.52
2014-03-19 18:40:00,2,1239,71,1.74,2,2,0,2,801,2383,439,1064,71,71,0,71,0.65,4.25,1.10,1.23
2014-03-19 18:50:00,2,2796,71,0.24,2,2,0,2,1822,4121,707,2583,71,71,0,71,0.00,0.80,0.29,0.08
2014-03-19 19:00:00,2,3666,77,0.01,2,2,0,2,1931,5997,1060,3693,71,78,3,78,0.00,0.10,0.03,0.00
2014-03-19 19:10:00,2,2441,76,0.04,2,2,0,2,1389,2747,401,2621,71,78,3,78,0.00,0.10,0.03,0.05
2014-03-19 19:20:00,2,2860,78,0.04,2,2,0,2,1462,4814,1196,2496,78,78,0,78,0.00,0.10,0.04,0.05
2014-03-19 19:30:00,2,2501,75,0.03,2,2,0,2,1688,3277,429,2514,71,78,3,77,0.00,0.05,0.02,0.05
2014-03-19 19:40:00,2,6025,58,0.01,2,2,0,2,2498,8161,1745,6952,10,78,31,78,0.00,0.10,0.03,0.00
2014-03-19 19:50:00,2,8115,10,0.00,2,2,0,2,5201,10380,1359,7976,10,10,0,10,0.00,0.00,0.00,0.00
2014-03-19 20:00:00,2,6761,10,0.00,2,2,0,2,4441,8951,1155,6850,10,10,0,10,0.00,0.00,0.00,0.00
2014-03-19 20:10:00,2,4742,59,0.28,2,2,0,2,2713,7856,1485,4418,10,71,24,71,0.00,1.05,0.34,0.15
2014-03-19 20:20:00,2,3015,73,0.07,2,2,0,2,1996,4628,899,2529,71,77,3,71,0.00,0.30,0.09,0.05
2014-03-19 20:30:00,2,3747,71,0.07,2,2,0,2,2134,4904,949,3877,71,71,0,71,0.00,0.25,0.09,0.03
2014-03-19 20:40:00,2,2159,71,0.12,2,2,0,2,1489,3053,431,2073,71,71,0,71,0.00,0.30,0.09,0.10
2014-03-19 20:50:00,2,2625,73,0.15,2,2,0,2,1386,3835,650,2523,71,77,3,71,0.05,0.45,0.12,0.10
2014-03-19 21:00:00,2,2161,71,0.15,2,2,0,2,1580,3522,647,1904,71,71,0,71,0.05,0.35,0.11,0.10
2014-03-19 21:10:00,2,1582,71,0.29,2,2,0,2,1241,1918,217,1581,71,71,0,71,0.10,0.60,0.15,0.28
2014-03-19 21:20:00,2,1182,71,0.43,2,2,0,2,501,1473,280,1242,71,71,0,71,0.15,1.70,0.44,0.28
2014-03-19 21:30:00,2,946,71,0.55,2,2,0,2,774,1112,120,975,71,71,0,71,0.15,1.50,0.37,0.47
2014-03-19 21:40:00,2,817,71,0.70,2,2,0,2,618,994,104,836,71,71,0,71,0.40,1.40,0.27,0.62
2014-03-19 21:50:00,2,902,71,0.72,2,2,0,2,671,1107,144,931,71,71,0,71,0.35,1.25,0.27,0.62
2014-03-19 22:00:00,2,802,71,1.42,2,2,0,2,567,966,128,804,71,71,0,71,0.70,3.00,0.74,1.10
2014-03-19 22:10:00,2,1074,71,0.76,2,2,0,2,767,1358,175,1080,71,71,0,71,0.20,1.60,0.36,0.78
2014-03-19 22:20:00,2,1008,71,0.99,2,2,0,2,779,1435,176,974,71,71,0,71,0.25,1.45,0.41,1.18
2014-03-19 22:30:00,2,852,71,3.16,2,2,0,2,697,983,87,870,71,71,0,71,1.00,6.30,1.53,3.15
2014-03-19 22:40:00,2,1022,71,3.46,2,2,0,2,862,1179,103,1016,71,71,0,71,2.60,4.95,0.71,3.33
2014-03-19 22:50:00,2,1152,71,2.22,2,2,0,2,867,1532,206,1113,71,71,0,71,0.55,3.30,0.74,2.28
2014-03-19 23:00:00,2,1971,71,0.36,2,2,0,2,1431,2429,302,2018,71,71,0,71,0.05,0.65,0.21,0.33
2014-03-19 23:10:00,2,3087,71,0.08,2,2,0,2,1858,6054,1148,2728,71,71,0,71,0.00,0.50,0.15,0.03
2014-03-19 23:20:00,2,2750,74,0.07,2,2,0,2,1748,3968,695,2686,71,77,3,74,0.00,0.55,0.16,0.00
2014-03-19 23:30:00,2,2677,71,0.25,2,2,0,2,2129,3215,371,2682,71,71,0,71,0.05,0.60,0.16,0.20
2014-03-19 23:40:00,2,4213,71,0.27,2,2,0,2,3170,5566,660,4229,71,71,0,71,0.05,0.85,0.24,0.20
2014-03-19 23:50:00,2,5142,71,0.21,2,2,0,2,3282,8790,1407,4924,71,71,0,71,0.00,0.55,0.19,0.12
